User: anonymous   Login
Location: Dentlein
(49.1477°N, 10.4231°E)
Time: 21:19:40
(UTC+00:00)
Language:

Cosmos 724 - Orbit

View from above orbital plane
View from above orbital plane
View from above satellite
View from above satellite

Ground track
Ground track

The orbit data is extracted from the following two-line orbital elements,

1 07727U 75025A   24205.33320658  .00000016  00000-0  71213-4 0  9990
2 07727  65.5900  60.3298 0045666  75.9729 284.6415 13.99032492518628
Epoch (UTC): 23 July 2024 07:59:49
Eccentricity: 0.0045666
inclination: 65.5900°
perigee height: 864 km
apogee height: 930 km
right ascension of ascending node: 60.3298°
argument of perigee: 75.9729°
revolutions per day: 13.99032492
mean anomaly at epoch: 284.6415°
orbit number at epoch: 51862

The dashed part of the orbit path shows where the satellite is in the earth's shadow,  

DLR